Hourly Data Report for September 27, 2017

All times are specified in Local Standard Time (LST). Add 1 hour to adjust for Daylight Saving Time where and when it is observed.

CAPE DORSET A
NUNAVUT

64°13'49.000" N
76°31'30.000" W
48.20 m
2400637
71366
YTE

Download Data

Hourly Data (September 2017)
Hourly Data Report for September 27, 2017
Temp Definition
°C
Dew Point Temp Definition
°C
Rel Hum Definition
%
Wind Dir Definition
10's deg

Wind Spd Definition
km/h
Visibility Definition
km
Stn Press Definition
kPa
Hmdx Definition


Wind Chill Definition


Weather Definition


TIME
00:00 Legend Double Dagger -1.7 -4.5 81 29 22 16.1 101.09   -8 LegendNANA
01:00 Legend Double Dagger -1.2 -4.2 80 31 22 16.1 101.11   -7 LegendNANA
02:00 Legend Double Dagger -1.1 -3.6 83 31 26 16.1 101.12   -7 LegendNANA
03:00 Legend Double Dagger -0.9 -3.1 85 31 21 16.1 101.13   -7 LegendNANA
04:00 Legend Double Dagger -1.0 -2.9 87 31 17 16.1 101.13   -6 LegendNANA
05:00 Legend Double Dagger -0.9 -3.0 86 30 11 16.1 101.13   -5 LegendNANA
06:00 Legend Double Dagger -0.9 -3.0 86 29 15 16.1 101.11   -6 LegendNANA
07:00 Legend Double Dagger -1.0 -2.7 88 29 13 16.1 101.11   -5 LegendNANA
08:00 Legend Double Dagger -0.9 -2.3 90 27 11 16.1 101.08   -5 LegendNANA
09:00 Legend Double Dagger -1.1 -2.2 92 29 17 16.1 101.03   -6 LegendNANA
10:00 Legend Double Dagger -0.7 -1.8 92 28 15 16.1 100.98   -5 LegendNANA
11:00 Legend Double Dagger -0.5 -1.6 92 27 18 16.1 100.95   -6 LegendNANA
12:00 Legend Double Dagger -0.8 -1.4 96 26 22 16.1 100.88   -7 Snow
13:00 Legend Double Dagger -1.0 -1.4 97 26 26 14.5 100.86   -7 LegendNANA
14:00 Legend Double Dagger -0.2 -0.5 98 26 28 16.1 100.83   -7 LegendNANA
15:00 Legend Double Dagger 0.1 0.1 100 24 21 1.6 100.82     Fog
16:00 Legend Double Dagger 0.8 0.7 99 26 32 16.1 100.75     LegendNANA
17:00 Legend Double Dagger 0.8 0.5 98 25 26 16.1 100.76     LegendNANA
18:00 Legend Double Dagger 0.9 0.8 99 26 18 16.1 100.75     Rain
19:00 Legend Double Dagger 1.0 0.7 98 25 15 16.1 100.73     Rain
20:00 Legend Double Dagger 0.9 0.8 99 25 15 16.1 100.67     Rain
21:00 Legend Double Dagger 0.8 0.7 99 25 17 16.1 100.64     Rain
22:00 Legend Double Dagger 1.0 0.7 98 26 18 16.1 100.60     LegendNANA
23:00 Legend Double Dagger 0.8 0.7 99 25 21 16.1 100.57     Rain

Notes on Data Quality.

Legend

  • E = Estimated
  • M = Missing
  • NA = Not Available
  • ‡ = Partner data that is not subject to review by the National Climate Archives
Date modified: